sat.trackr.live / text

‹ back to catalog

HJS-8A

NORAD 68687 · 2026-078A

PAYLOAD ACTIVE UNKNOWN

§ Identity

Operator
Country
PRC
Launch date
2026-04-11
Launch site
SCSLA
Launch vehicle
Mass (kg)
RCS (m²)

External: N2YO · Heavens-Above · Gunter

§ Orbital elements

Epoch: 2026-05-08T06:11:58.586208Z

Period
106.14 min
Inclination
86.4957°
Eccentricity
0.0001122
Mean motion
13.56682030 rev/d
Perigee alt
1,046.9 km
Apogee alt
1,048.6 km
Semi-major
7,425.9 km
B*
-6.3622e-1
RAAN
296.2001°
Arg perigee
17.6225°
Mean anomaly
342.4966°
Rev number
364

§ Raw data

HJS-8A1 68687U 26078A   26128.25831697 -.00430441  00000+0 -63622+0 0  99932 68687  86.4957 296.2001 0001122  17.6225 342.4966 13.56682030  3646

JSON: /api/v1/satellites/68687 · /tle

For live sub-satellite position, see the globe view (requires WebGL).

§ Visibility from observer

Set your observer location to see the next 7 days of passes ≥ 10°. The values pass through the URL so the page stays shareable.

No JS? Fill the form by hand. The geolocation button needs JavaScript.